Regional Weather Roundup
Issued by NWS

Home | Current Version | Previous Version | Graphics & Text | Print | Product List | Glossary On
Versions: 1 2 3 4 5 6 7 8 9 10 11 12 13 14 15 16 17 18 19 20 21 22 23 24 25 26 27 28 29 30 31 32 33 34 35 36 37 38 39 40 41 42 43 44 45 46 47 48 49 50
000
ASUS45 KBOU 301407
RWRCO

WEATHER ROUNDUP FOR COLORADO
NATIONAL WEATHER SERVICE DENVER/BOULDER CO
800 AM MDT SAT MAY 30 2015

NOTE: "FAIR" INDICATES FEW OR NO CLOUDS BELOW 12000 FEET WITH NO
SIGNIFICANT WEATHER AND/OR OBSTRUCTIONS TO VISIBILITY.

COZ001>005-013-030-031-301500-
...NORTHWEST COLORADO...

CITY           SKY/WX    TMP DP  RH WIND       PRES   REMARKS
CRAIG          SUNNY     50  40  68 E6        30.30F
HAYDEN         SUNNY     46  36  66 E10       30.32S
MEEKER         SUNNY     47  37  68 SE3       30.32S
MOUNT WERNER   NOT AVBL
STEAMBOAT SPGS SUNNY     42  37  83 CALM      30.34S
WALDEN         SUNNY     37  34  87 S3        30.38F
$$

COZ006>008-011-301500-
...WEST CENTRAL VALLEYS...

CITY           SKY/WX    TMP DP  RH WIND       PRES   REMARKS
GRAND JUNCTION SUNNY     60  41  49 SE12      30.24S
MONTROSE       SUNNY     54  38  54 SE6       30.31S
EAGLE          SUNNY     52  48  87 CALM      30.40S
RIFLE          SUNNY     50  40  68 CALM      30.31R
DELTA          SUNNY     58  39  49 E6        30.29S
NUCLA          SUNNY     54  36  50 E7        30.32S
$$

COZ017>023-064>068-301500-
...SOUTHWEST COLORADO...

CITY           SKY/WX    TMP DP  RH WIND       PRES   REMARKS
DURANGO        SUNNY     50  33  52 CALM      30.32R
CORTEZ         SUNNY     53  37  54 NE5       30.28S
PAGOSA SPRINGS SUNNY     50  32  50 CALM      30.38S
TELLURIDE      SUNNY     46  30  54 CALM      30.45R
WOLF CREEK PAS NOT AVBL
$$

COZ009-010-012-014-032>034-037-058>063-301500-
...CENTRAL COLORADO...

CITY           SKY/WX    TMP DP  RH WIND       PRES   REMARKS
ASPEN          SUNNY     44  32  62 CALM      30.38R
BUENA VISTA    SUNNY     47  34  60 N5        30.40S
COPPER MTN     SUNNY     37  25  60 CALM      30.53S
BERTHOUD PASS  FAIR      28  21  74 NW10      30.55R WCI  19
COTTONWOOD PAS SUNNY     43  32  65 CALM      30.45S
GUNNISON       SUNNY     41  34  75 CALM      30.44R
KREMMLING      MOSUNNY   37  34  87 CALM      30.41S
LEADVILLE      SUNNY     37  30  75 N3        30.45S
MONARCH PASS   SUNNY     32  30  93 MISG      30.63S
SALIDA         SUNNY     49  41  75 N5        30.45S
SUNLIGHT       SUNNY     43  30  61 CALM      30.53
WILKERSON PASS FOG       32  32 100 MISG      30.52R VSB 1/4
$$

COZ069>075-301500-
...SAN LUIS VALLEY/SANGRE DE CRISTO MOUNTAINS...

CITY           SKY/WX    TMP DP  RH WIND       PRES   REMARKS
ALAMOSA        SUNNY     48  37  65 CALM      30.38R
LA VETA PASS   SUNNY    N/A N/A N/A MISG      30.46R THUNDER
SAGUACHE       SUNNY     46  32  57 NW10      30.40S
$$

COZ035-036-038>040-301500-
...NORTHERN COLORADO FRONT RANGE...

CITY           SKY/WX    TMP DP  RH WIND       PRES   REMARKS
DENVER INTL AP SUNNY     54  45  71 CALM      30.29S
DMNS CITY PARK   N/A     55  46  70 NE1       30.28S
AURORA         MOSUNNY   52  44  74 CALM      30.30S
FRONT RANGE AP SUNNY     55  46  71 NW3       30.31
ERIE MUNI ARPT SUNNY     52  47  83 CALM      30.29S
BOULDER MUN AP SUNNY     52  46  82 CALM      30.29S
CENTENNIAL     MOSUNNY   51  44  77 CALM      30.30R
BROOMFIELD     NOT AVBL
FORT COLLINS   PTSUNNY   52  46  82 SW3       30.30S
LONGMONT       SUNNY     58  46  63 CALM      30.31S
$$

COZ041-046-047-076>085-087-088-301500-
...PIKES PEAK/PALMER DIVIDE AND SOUTHERN FOOTHILLS...

CITY           SKY/WX    TMP DP  RH WIND       PRES   REMARKS
COLO. SPRINGS  CLOUDY    48  46  93 SE5       30.34R
A. F. ACADEMY  CLOUDY    46  46  99 S3        30.33R
ELLICOTT       SUNNY    N/A N/A N/A CALM      30.33R
FALCON         CLOUDY    46  45  96 S7        30.36R
FORT CARSON    PTSUNNY   48 N/A N/A SE2       30.32R
LIMON          SUNNY     50  45  83 SE3       30.31S
MONUMENT HILL  MOSUNNY   46  43  87 MISG      30.34R
TRINIDAD       SUNNY     52  47  83 SW5       30.32S
$$

COZ042>045-048>051-090-091-301500-
...NORTHEAST COLORADO...

CITY           SKY/WX    TMP DP  RH WIND       PRES   REMARKS
GREELEY ARPT   SUNNY     52  48  87 SE3       30.30S
AKRON          CLOUDY    48  44  86 E6        30.31R
BURLINGTON     NOT AVBL
WRAY           CLOUDY    49  44  82 NW5       30.33S
STERLING       CLOUDY    50  45  81 E6        30.30R
HOLYOKE        CLOUDY    52  43  71 NE6       30.33S
FORT MORGAN    SUNNY     52  45  77 E5        30.31R
$$

COZ086-089-092>099-301500-
...SOUTHEAST COLORADO...

CITY           SKY/WX    TMP DP  RH WIND       PRES   REMARKS
PUEBLO         PTSUNNY   53  50  89 S6        30.30R
LA JUNTA       PTSUNNY   53  47  79 E5        30.31S
LAMAR          PTSUNNY   53  47  79 NE7       30.29S
SPRINGFIELD      N/A     51  48  89 N8        30.31S
$$



USA.gov is the U.S. government's official web portal to all federal, state and local government web resources and services.